Content
SEND FEEDBACK

Daily
Averages
Monthly
Summary
United States of America

BELLEVILLE, MICHIGAN


Home > North America > United States > Michigan
Elevation: 780 feet     Latitude: 42 14N     Longitude: 083 32W

WEATHER
 
SELECT A DAY
Number of Records: 202,718;   Date Range: 1/1/95 - 8/28/14
 
SHARE

PRINT THIS DATA

[ ← Previous Day ]
WEATHER ALMANAC - FEBRUARY 20, 2013
[ Next Day → ]
[ °C ]   °F
Weather ElementAverageHighLow
Temperature22.1 °F25 °F (1:53 pm)19 °F (4:53 am)
Dewpoint10.3 °F14 °F (9:53 pm)5 °F (5:53 am)
Humidity60.8 %68 % (1:05 am)51 % (12:53 pm)
Barometer30.12 in30.25 in (10:53 pm)29.94 in (1:05 am)
Wind Speed15.5 mph21.9 mph (4:30 am)
Wind Gust32.2 mph (5:53 am)
Weather ElementAverage
Visibility8.7 mi
Wind DirectionWNW (292.5 °)

Weather ElementTotal
Precipitation---
Heating Degree Days43 (Base 65)
Averaged from 32 records on February 20, 2013
WEATHER CONDITIONS BREAKOUT
WIND DIRECTION BREAKOUT
WEATHER BY HOUR - FEBRUARY 20, 2013
[ °C ]   °F
Local TimeTemperatureDewpointHumidityBarometerVisibilityWind DirectionWind SpeedGust SpeedPrecipitationEventsConditions
1:05 AM19.4 °F10.4 °F68 %29.94 in10.0 miWest (260°)15.0 mphOvercast
1:51 AM19.4 °F10.4 °F68 %29.96 in10.0 miWest (260°)16.1 mphOvercast
1:53 AM19.9 °F10.0 °F65 %29.99 in10.0 miWest (270°)17.3 mphOvercast
2:42 AM19.4 °F10.4 °F68 %29.97 in9.0 miWest (270°)17.3 mph24.2 mph0.00 inSnowLight Snow
2:53 AM19.9 °F10.9 °F68 %29.99 in9.0 miWest (270°)16.1 mph20.7 mph0.00 inSnowLight Snow
3:53 AM19.9 °F10.0 °F65 %29.99 in9.0 miWest (270°)18.4 mph24.2 mph0.00 inSnowLight Snow
4:23 AM19.4 °F10.4 °F68 %29.99 in2.5 miWNW (300°)19.6 mph29.9 mph0.00 inSnowLight Snow
4:30 AM19.4 °F10.4 °F68 %29.99 in1.0 miWNW (290°)21.9 mph31.1 mph0.00 inSnowLight Snow
4:39 AM19.4 °F10.4 °F68 %30.00 in3.0 miWNW (290°)20.7 mph29.9 mph0.00 inSnowLight Snow
4:51 AM19.4 °F10.4 °F68 %30.00 in4.0 miWNW (290°)20.7 mph25.3 mph0.00 inSnowLight Snow
4:53 AM19.0 °F10.0 °F68 %30.03 in5.0 miWNW (300°)21.9 mph25.3 mph0.00 inSnowLight Snow
5:53 AM19.0 °F5.0 °F54 %30.06 in10.0 miWest (280°)18.4 mph32.2 mph0.00 inOvercast
7:53 AM19.0 °F8.1 °F62 %30.09 in10.0 miWest (270°)15.0 mphOvercast
8:53 AM19.9 °F7.0 °F57 %30.10 in10.0 miWNW (290°)18.4 mph25.3 mphScattered Clouds
9:53 AM21.9 °F8.1 °F55 %30.11 in10.0 miWNW (300°)13.8 mphOvercast
10:53 AM21.9 °F7.0 °F53 %30.13 in10.0 miWNW (300°)19.6 mph29.9 mphOvercast
11:53 AM23.0 °F9.0 °F55 %30.14 in10.0 miWNW (290°)19.6 mphOvercast
12:53 PM24.1 °F8.1 °F51 %30.16 in10.0 miNW (310°)20.7 mph0.00 inOvercast
1:53 PM25.0 °F9.0 °F51 %30.16 in10.0 miWNW (300°)16.1 mph23.0 mph0.00 inOvercast
2:53 PM25.0 °F10.0 °F53 %30.17 in9.0 miWest (280°)12.7 mph0.00 inOvercast
3:53 PM24.1 °F10.0 °F55 %30.20 in10.0 miWNW (300°)13.8 mph0.00 inOvercast
4:53 PM24.1 °F10.9 °F57 %30.23 in10.0 miWest (270°)12.7 mph0.00 inOvercast
5:53 PM24.1 °F10.9 °F57 %30.22 in10.0 miWNW (300°)12.7 mph0.00 inOvercast
6:53 PM24.1 °F12.0 °F60 %30.22 in10.0 miWNW (300°)11.5 mphOvercast
7:53 PM24.1 °F12.0 °F60 %30.23 in10.0 miWNW (300°)9.2 mphOvercast
8:53 PM25.0 °F12.9 °F60 %30.23 in10.0 miWNW (300°)10.4 mphOvercast
9:34 PM24.8 °F12.2 °F59 %30.21 in9.0 miNW (310°)11.5 mph0.00 inOvercast
9:53 PM25.0 °F14.0 °F63 %30.24 in9.0 miNW (310°)9.2 mph0.00 inOvercast
10:42 PM24.8 °F12.2 °F59 %30.22 in10.0 miNNW (330°)11.5 mph23.0 mph0.00 inOvercast
10:53 PM24.1 °F12.0 °F60 %30.25 in10.0 miNW (310°)12.7 mph18.4 mph0.00 inOvercast
11:00 PM24.8 °F12.2 °F59 %30.22 in10.0 miNW (320°)10.4 mphOvercast
11:53 PM24.1 °F12.9 °F62 %30.25 in9.0 miNW (320°)10.4 mph0.00 inOvercast
Hourly data recorded from KYIP, located miles away from Belleville, Michigan







STORIES FROM OUR PARTNERS